sat.trackr.live / text

‹ back to catalog

KUIPER-00222

NORAD 67782 · 2026-030U

PAYLOAD ACTIVE UNKNOWN

§ Identity

Operator
Country
US
Launch date
2026-02-12
Launch site
FRGUI
Launch vehicle
Mass (kg)
RCS (m²)

External: N2YO · Heavens-Above · Gunter

§ Orbital elements

Epoch: 2026-09-20T03:37:51.710880Z

Period
97.30 min
Inclination
51.8985°
Eccentricity
0.0001004
Mean motion
14.79928517 rev/d
Perigee alt
628.8 km
Apogee alt
630.3 km
Semi-major
7,007.7 km
B*
9.5660e-5
RAAN
60.8360°
Arg perigee
139.2833°
Mean anomaly
220.8205°
Rev number
3,414

§ Raw data

KUIPER-002221 67782U 26030U   26263.15129295  .00000508  00000+0  95660-4 0  99962 67782  51.8985  60.8360 0001004 139.2833 220.8205 14.79928517 34149

JSON: /api/v1/satellites/67782 · /tle

For live sub-satellite position, see the globe view (requires WebGL).

§ Visibility from observer

Set your observer location to see the next 7 days of passes ≥ 10°. The values pass through the URL so the page stays shareable.

No JS? Fill the form by hand. The geolocation button needs JavaScript.